GEFSCGP_con_cape1000_366.txt.gz
Probability
0 0 0 0 0 0 0 0 0 0 0 0 0 3 0 0 0 3 6 3 3 3 3 6 19 26 23 23 16 16 16 19 19 23 16 19 16 13 16 16 19 23 23 23
0 0 0 0 0 0 0 0 0 0 0 0 0 3 6 3 3 3 6 3 0 0 3 10 13 26 29 23 19 19 19 19 23 23 16 16 16 16 16 16 16 16 19 23
0 0 0 0 0 0 0 0 0 0 0 0 0 0 6 3 3 3 0 3 6 0 0 6 19 23 26 29 26 29 26 26 29 29 16 16 13 19 19 16 16 19 19 19
0 0 0 0 0 0 0 0 0 0 0 0 0 0 3 3 3 3 0 3 10 3 0 0 13 19 23 23 29 26 29 29 29 26 19 13 16 16 16 16 16 19 23 23
0 0 0 0 0 0 0 0 0 0 0 0 0 0 3 3 3 3 3 6 0 3 3 3 3 16 23 23 29 26 29 29 29 19 19 16 16 19 16 16 16 19 19 19
0 0 0 0 0 0 0 0 0 0 0 0 0 0 0 3 3 3 3 3 0 3 3 3 3 10 13 26 35 29 26 29 32 29 26 13 16 19 16 19 23 19 16 16
0 0 0 0 0 0 0 0 0 0 0 0 0 0 0 6 3 3 10 0 0 0 6 3 10 6 10 26 29 32 32 35 32 39 32 29 23 19 16 13 19 23 19 23
0 0 0 0 0 0 0 0 0 0 0 0 0 3 6 6 3 0 6 3 6 6 3 6 6 6 10 26 29 29 35 35 29 32 19 23 29 29 19 19 19 23 23 19
0 0 0 0 0 0 0 0 0 0 0 0 0 3 3 3 3 6 10 13 10 10 6 3 3 10 13 16 29 26 35 32 26 29 26 32 26 26 23 26 23 16 16 16
0 0 0 0 0 0 0 0 0 0 0 0 0 0 0 3 3 6 6 13 16 10 6 6 10 10 16 19 29 35 35 29 26 26 26 29 26 26 26 23 19 26 23 26
0 0 0 0 0 0 0 0 0 0 0 0 0 0 0 3 0 6 10 10 10 6 6 10 10 13 13 19 29 42 39 32 35 26 23 29 29 29 23 26 19 16 19 23
0 0 0 0 0 0 0 0 0 0 0 0 0 0 0 3 3 6 6 6 10 10 10 10 10 10 13 16 29 35 35 42 32 29 26 29 29 29 23 19 19 16 19 19
0 0 0 0 0 0 0 0 0 0 0 0 0 0 3 6 6 10 6 6 10 16 10 6 6 16 13 19 19 23 26 32 39 35 26 29 29 29 23 23 23 16 16 23
0 0 0 0 0 0 0 0 0 0 0 0 0 0 3 10 10 10 6 6 6 10 16 10 6 10 13 16 19 23 23 23 26 26 23 19 19 23 19 19 23 26 16 16
0 0 0 0 0 0 0 0 0 0 0 0 0 0 3 3 13 10 10 13 16 23 19 16 16 6 10 16 19 19 19 23 23 26 23 19 23 23 23 23 23 23 19 19
0 0 0 0 0 0 0 0 0 0 0 0 0 0 0 6 6 10 10 10 19 23 23 16 23 16 13 16 10 19 19 23 19 19 23 26 23 23 19 19 19 19 16 19
0 0 0 0 0 0 0 0 0 0 0 0 0 0 6 6 6 6 10 10 13 13 16 16 19 13 16 13 16 13 16 23 19 19 29 29 26 26 23 23 23 23 16 16
0 0 0 0 0 0 0 0 0 3 0 0 3 6 6 6 10 3 6 6 10 10 10 13 13 10 10 16 19 19 16 19 26 26 26 29 29 26 23 23 23 23 19 23
0 0 0 0 0 0 0 3 3 3 3 3 3 0 6 3 3 6 6 6 6 10 16 16 13 10 10 16 13 16 19 16 19 29 26 29 29 32 29 26 26 23 23 16
0 0 0 0 0 0 0 0 3 3 3 3 6 6 3 3 6 3 10 13 10 10 13 10 13 10 13 16 13 16 16 23 19 19 19 23 26 26 26 19 19 19 19 19
0 0 0 0 0 3 3 6 3 3 6 3 10 10 0 0 0 3 10 10 6 10 13 16 10 10 13 13 13 16 19 19 23 19 19 26 23 29 26 16 16 16 16 16
0 0 0 0 0 3 3 6 10 10 10 16 6 6 3 6 6 10 10 10 13 13 13 19 13 13 13 13 19 23 19 19 23 19 23 23 23 26 23 23 19 23 19 16
0 0 0 0 0 0 3 3 6 13 13 13 13 10 6 6 10 13 13 13 13 13 13 13 19 16 13 13 16 19 19 19 23 23 19 16 19 19 19 13 13 19 19 16
0 0 0 0 3 3 3 3 3 3 10 13 13 10 6 6 10 13 13 16 16 16 16 16 23 23 13 13 16 13 13 16 19 13 13 16 19 16 16 13 13 13 13 16
0 0 0 3 0 6 6 6 6 3 6 10 16 10 13 13 13 13 13 16 13 13 16 19 19 16 16 16 16 16 13 13 10 10 6 6 13 13 16 13 13 13 13 13
0 0 0 0 0 0 0 0 3 6 10 10 10 6 6 13 13 13 13 13 13 13 19 19 16 16 16 16 13 16 10 10 10 10 10 6 10 10 10 10 6 6 6 6

GEFSCGP_con_cape1000_372.txt.gz
Probability
0 0 0 0 0 0 0 0 0 0 0 3 3 3 3 3 6 6 6 3 10 3 3 6 16 16 10 10 10 10 13 10 6 10 6 6 6 6 6 10 16 16 19 19
0 0 0 0 0 0 0 0 0 0 0 3 3 3 3 0 3 3 0 3 6 6 3 10 10 16 16 13 10 6 10 6 6 6 6 6 10 6 10 13 19 19 19 19
0 0 0 0 0 0 0 0 0 0 0 0 0 0 0 3 0 0 0 0 0 3 6 10 13 16 13 16 13 16 10 6 6 6 6 6 3 3 6 10 10 13 19 19
0 0 0 0 0 0 0 0 0 0 0 0 0 0 0 3 0 0 0 0 0 0 6 10 10 13 13 13 13 10 3 3 3 6 6 6 6 6 10 6 10 10 13 16
0 0 0 0 0 0 0 0 0 0 0 0 0 0 0 3 3 0 0 0 0 0 3 6 6 10 16 16 16 10 3 6 3 3 3 3 6 6 10 10 10 10 10 10
0 0 0 0 0 0 0 0 0 0 0 0 0 0 0 0 0 0 3 0 0 0 0 3 3 3 10 16 16 6 0 3 6 6 3 3 6 6 6 6 10 10 10 10
0 0 0 0 0 0 0 0 0 0 0 0 0 0 0 0 3 3 3 0 3 3 0 0 0 3 3 6 10 6 0 3 3 3 6 3 3 3 6 6 6 10 10 10
0 0 0 0 0 0 0 0 0 0 0 0 0 0 0 3 3 3 6 6 6 3 3 0 3 0 0 3 10 6 3 3 3 10 10 3 3 3 3 3 3 6 6 10
0 0 0 0 0 0 0 0 0 0 0 0 0 0 3 3 3 3 3 3 0 3 6 10 6 6 3 3 6 10 6 6 6 10 6 6 6 3 3 3 3 3 6 10
0 0 0 0 0 0 0 0 0 0 0 0 0 0 0 0 3 3 3 3 0 0 3 3 0 3 3 0 3 3 10 6 6 13 6 10 6 6 3 3 6 6 6 10
0 0 0 0 0 0 0 0 0 0 0 0 0 0 0 0 3 3 3 3 3 0 0 0 0 0 3 3 3 10 10 16 13 13 10 6 6 6 6 6 6 6 6 6
0 0 0 0 0 0 0 0 0 0 0 0 0 0 0 0 0 0 3 3 3 0 0 6 3 0 3 0 3 10 6 6 10 13 10 10 10 10 10 6 6 3 3 3
0 0 0 0 0 0 0 0 0 0 0 0 0 0 0 0 0 0 0 0 0 3 3 6 3 0 3 3 6 10 10 10 10 10 6 6 6 6 10 6 6 6 3 3
0 0 0 0 0 0 0 0 0 0 0 0 0 0 0 0 0 3 0 0 3 3 3 3 3 0 0 6 10 13 13 16 13 6 6 3 3 6 6 10 6 6 3 6
0 0 0 0 0 0 0 0 0 0 0 0 0 0 0 0 0 3 3 6 6 3 3 0 0 0 3 6 6 10 13 13 10 10 10 10 10 10 6 6 6 6 10 10
0 0 0 0 0 0 0 0 0 0 0 0 0 0 0 0 3 6 10 10 6 10 6 0 0 3 3 3 6 13 10 10 10 10 10 10 6 10 10 10 19 16 13 13
0 0 0 0 0 0 0 0 0 0 0 0 0 0 3 6 6 3 10 13 13 10 6 10 6 3 3 3 3 3 10 10 10 10 10 10 13 13 13 16 23 19 19 23
0 0 0 0 0 0 0 3 3 0 6 3 3 3 6 6 10 10 6 6 6 13 10 10 6 3 0 0 0 13 13 10 13 13 10 10 10 10 16 13 13 19 19 19
0 0 0 0 0 0 0 0 0 3 3 3 3 6 6 3 3 3 0 0 10 10 13 10 0 0 3 3 6 6 10 6 6 6 6 6 10 10 13 16 13 16 16 16
0 0 0 0 0 0 0 0 0 0 0 0 10 6 3 3 3 0 0 3 6 6 6 0 0 0 0 6 3 3 3 6 6 6 6 6 6 16 10 13 13 10 13 16
0 0 0 0 0 0 0 0 3 3 0 0 10 10 6 3 3 3 3 3 6 10 6 0 0 0 3 3 3 3 6 3 3 3 6 6 10 10 10 6 6 6 10 19
0 0 0 0 0 0 0 0 0 0 3 3 10 6 3 3 3 3 3 3 6 6 6 6 0 0 3 3 3 3 3 3 6 10 13 13 10 10 10 6 6 10 10 10
0 0 0 0 0 0 0 0 0 0 0 3 3 3 0 0 3 6 6 6 6 6 6 6 3 6 6 6 3 3 6 6 6 10 10 10 10 10 10 6 6 10 10 10
0 0 0 0 0 0 0 0 0 3 3 3 3 6 0 0 3 3 6 6 3 6 6 6 10 6 6 6 6 6 6 3 6 6 6 6 6 6 10 6 6 6 10 10
0 0 0 0 0 0 0 0 3 3 6 6 3 6 6 3 3 3 3 10 3 3 6 6 10 10 6 6 6 6 6 3 6 6 6 3 3 3 3 3 0 6 10 13
0 0 0 0 0 0 0 0 0 6 10 10 10 10 3 3 3 3 3 6 6 6 6 6 10 10 10 6 6 6 10 6 6 6 6 6 6 6 6 6 3 3 3 6

GEFSCGP_con_cape1000_378.txt.gz
Probability
0 0 0 0 0 0 0 0 0 0 0 3 3 3 3 6 3 10 10 10 23 29 29 23 29 32 35 45 52 52 48 52 58 52 45 52 52 52 45 42 42 45 48 52
0 3 0 0 0 0 0 0 0 0 0 0 0 3 3 10 10 10 10 23 26 32 26 29 29 32 35 45 48 48 55 55 65 58 61 55 48 42 48 39 48 48 48 45
0 0 0 0 0 0 0 0 0 0 0 0 0 0 6 10 10 10 16 16 19 23 26 32 35 35 35 42 45 32 55 58 61 61 48 52 48 42 45 45 45 42 42 45
0 0 0 0 0 0 0 0 0 0 0 0 0 0 6 10 13 13 19 19 16 13 16 26 35 32 42 35 42 48 52 61 61 61 55 52 55 45 42 45 45 42 42 45
0 0 0 0 0 0 0 0 0 0 0 0 0 0 0 3 6 6 13 16 13 19 19 23 26 35 42 42 39 52 58 61 65 61 65 68 61 48 45 45 45 52 55 52
0 0 0 0 0 0 0 0 0 0 0 0 0 0 0 0 6 6 10 13 16 19 19 26 26 26 42 42 42 48 61 65 65 65 68 68 68 65 58 58 52 48 55 52
0 0 0 0 0 0 0 0 0 0 0 0 0 0 0 6 6 6 13 19 19 29 29 26 29 35 45 42 45 52 58 68 65 61 61 61 61 61 58 61 48 42 35 39
0 0 0 0 0 0 0 0 0 0 0 0 3 0 3 3 3 6 16 16 19 23 23 19 19 32 45 45 48 52 55 52 55 58 65 61 55 48 52 52 42 39 39 35
0 0 0 0 0 0 0 0 0 0 0 0 0 0 3 3 3 6 13 13 13 13 13 13 19 23 39 42 42 42 55 61 58 55 61 61 58 55 52 55 52 39 42 39
0 0 0 0 0 0 0 0 0 0 0 0 0 0 0 6 3 10 10 6 10 10 16 19 23 29 23 35 52 52 55 61 61 61 58 58 55 58 58 45 45 42 42 42
0 0 0 0 0 0 0 0 0 0 0 0 0 0 0 0 0 3 6 6 10 13 10 19 23 19 26 29 39 52 52 55 61 61 61 58 48 45 52 52 48 45 45 45
0 0 0 0 0 0 0 0 0 0 0 0 0 0 0 6 0 3 6 16 13 16 10 19 23 23 32 29 32 48 52 52 52 48 52 52 45 48 48 42 48 45 45 42
0 0 0 0 0 0 0 0 0 0 0 0 0 0 3 10 6 3 10 13 23 29 23 26 32 35 35 35 35 39 45 48 48 48 55 48 42 39 39 45 45 42 45 42
0 0 0 0 0 0 0 0 0 0 0 0 0 0 3 10 13 10 10 29 29 29 26 39 39 39 39 45 45 45 42 45 45 42 42 42 35 35 39 39 39 35 39 39
0 0 0 0 0 0 0 0 0 0 0 0 0 0 0 10 13 19 32 35 32 29 26 35 39 45 52 48 52 48 52 45 39 39 35 42 42 42 39 35 32 35 35 35
0 0 0 0 0 0 0 0 0 0 0 0 0 0 3 10 16 26 29 32 29 32 23 42 39 48 58 52 48 42 45 45 45 42 39 39 42 39 39 32 32 29 29 32
0 3 0 0 0 0 0 0 0 0 0 3 0 0 13 16 23 29 29 39 35 29 32 45 42 52 52 45 48 42 45 52 48 39 35 39 39 26 26 23 23 29 32 29
3 6 0 0 0 0 0 0 3 0 3 3 10 6 16 13 26 26 29 35 35 35 39 48 48 45 45 39 48 45 42 42 39 35 35 32 35 32 26 26 29 32 29 26
0 6 0 0 0 0 0 0 3 3 3 6 10 13 19 19 26 26 29 35 32 35 45 42 32 32 35 35 39 39 39 29 32 35 32 26 26 29 32 26 29 29 29 29
3 10 0 0 0 0 0 0 3 0 3 6 10 23 26 23 13 19 35 35 35 35 39 35 29 29 35 39 35 32 29 26 29 26 26 19 26 26 26 32 26 23 26 26
0 6 0 0 0 0 0 3 3 0 0 0 13 23 26 23 13 26 32 35 39 39 39 39 39 35 26 26 29 32 29 26 26 26 23 23 23 26 29 29 29 26 26 23
0 0 0 0 0 0 0 3 3 3 10 13 13 19 32 29 26 29 29 29 29 32 32 32 29 26 29 29 26 26 26 19 23 23 23 26 19 13 10 26 26 23 23 23
0 0 0 0 0 3 3 3 6 16 13 26 19 26 23 29 23 26 35 29 26 29 23 23 23 23 23 26 26 29 26 23 23 23 19 19 19 16 13 16 13 19 23 16
0 6 0 0 0 0 6 3 10 16 23 23 23 19 26 32 26 19 19 26 26 23 23 26 23 23 26 23 26 26 23 19 23 26 23 16 19 16 13 23 16 13 13 13
3 3 3 6 3 6 10 13 10 16 16 23 23 26 29 23 23 26 26 19 16 19 26 26 29 29 29 29 29 29 26 26 19 23 23 16 19 19 16 10 13 16 16 13
6 6 3 3 10 6 6 13 10 13 16 19 16 16 23 23 23 23 16 10 13 16 26 29 29 29 29 29 29 29 26 26 19 19 19 19 19 16 16 13 10 3 10 0

GEFSCGP_con_cape1000_384.txt.gz
Probability
0 3 3 3 0 0 0 0 0 0 0 0 0 0 0 0 3 10 6 10 23 29 26 23 26 32 35 52 65 68 65 77 84 77 81 74 74 71 74 71 65 58 55 58
0 3 0 0 0 0 0 0 0 0 0 0 0 0 0 3 6 6 13 16 16 23 26 29 26 26 32 55 61 74 71 74 81 87 84 81 81 68 74 74 74 61 58 55
0 0 0 0 0 0 0 0 0 0 0 0 0 0 3 3 3 10 10 16 13 16 23 29 32 29 32 48 65 58 77 81 81 84 77 84 84 87 77 77 74 61 58 52
0 0 0 0 0 0 0 0 0 0 0 0 0 0 3 3 10 6 10 13 13 19 16 29 29 39 35 39 52 71 81 87 84 81 87 87 77 81 77 81 77 68 61 58
0 0 0 0 0 0 0 0 0 0 0 0 0 0 3 10 10 13 6 13 13 13 16 19 19 29 29 29 29 68 77 81 84 84 84 84 87 90 87 90 77 74 71 65
0 0 0 0 0 0 0 0 0 0 0 0 0 0 3 10 10 13 6 10 10 16 16 19 23 26 32 32 35 61 74 77 84 84 84 81 81 84 84 84 84 77 71 68
0 0 0 0 0 0 0 0 0 0 0 0 0 0 6 10 10 13 10 10 10 10 10 16 19 29 42 42 42 58 74 81 81 77 77 77 81 81 77 74 74 71 61 65
0 0 0 0 0 0 0 0 0 0 0 0 0 0 3 3 3 6 10 10 6 10 13 16 19 29 35 45 58 58 71 74 77 77 81 77 81 81 81 77 74 71 71 58
0 0 0 0 0 0 0 0 0 0 0 0 0 3 6 3 6 3 3 10 6 6 10 13 16 19 29 42 48 58 61 74 74 77 81 74 77 77 77 74 74 71 71 61
0 0 0 0 0 0 0 0 0 0 6 0 0 3 3 6 10 6 6 10 13 10 13 13 16 19 35 35 58 61 65 68 65 65 71 68 77 77 74 77 77 71 68 61
0 0 0 0 0 0 0 0 0 0 3 0 0 0 0 10 16 10 6 13 13 13 16 23 23 29 32 32 39 48 58 65 65 65 58 68 68 74 74 71 68 65 68 58
0 0 0 0 0 0 0 0 0 0 3 3 0 3 3 3 6 10 6 10 13 19 16 23 26 26 29 32 42 45 48 52 61 65 61 58 68 61 61 58 55 55 55 52
0 0 0 0 0 0 0 0 0 0 3 0 0 3 3 6 6 0 6 13 16 29 29 26 29 29 29 32 35 35 45 48 58 55 58 61 61 55 58 55 48 45 48 48
0 0 0 0 0 0 0 0 0 0 0 0 0 0 6 6 6 10 13 16 23 29 39 39 45 48 45 55 58 45 48 48 52 58 52 45 48 52 55 52 45 48 48 45
0 0 0 0 0 0 0 0 0 0 0 0 0 0 6 6 3 13 19 26 23 26 32 42 52 58 58 55 55 55 48 48 55 52 48 48 52 52 48 45 42 42 39 32
0 0 0 0 0 0 0 0 0 0 0 0 0 0 3 10 6 16 23 19 29 35 29 39 52 55 52 55 52 52 52 52 52 45 45 52 48 48 48 42 42 39 42 35
0 0 0 0 0 0 0 0 0 0 0 0 0 0 6 10 10 13 13 23 26 29 39 42 55 61 55 52 58 52 58 55 52 48 52 52 45 45 39 35 42 39 39 39
0 10 3 0 0 0 3 3 0 0 3 0 3 3 10 13 19 13 13 26 29 32 48 55 48 45 55 55 61 61 52 52 48 48 48 45 45 42 35 39 39 39 39 42
0 10 0 0 0 3 3 3 3 0 3 3 3 3 10 19 23 16 16 19 29 42 55 55 55 45 61 61 58 55 52 45 42 42 42 42 39 39 39 42 39 45 42 42
0 3 3 3 0 0 3 3 0 0 3 3 3 6 10 13 13 26 45 39 42 45 55 52 52 45 52 58 55 52 35 39 39 29 32 35 35 32 32 39 45 42 39 35
3 6 3 3 0 0 0 0 3 3 6 3 3 6 19 29 32 39 35 35 35 32 39 42 42 42 48 52 52 48 45 45 42 32 32 35 35 32 32 32 39 35 29 29
0 3 3 0 0 0 0 0 0 19 29 3 13 16 23 35 39 32 32 32 32 29 39 39 45 45 48 48 52 52 45 45 39 32 35 35 32 32 29 32 32 32 29 29
0 3 0 6 6 16 3 10 13 16 13 6 6 10 19 26 32 35 29 35 32 35 39 39 39 42 45 48 42 48 48 45 42 42 39 29 32 29 29 32 26 29 35 19
3 3 6 23 13 6 6 6 6 6 6 3 3 13 16 23 26 29 29 29 26 26 32 32 32 39 45 39 39 45 45 45 45 42 42 32 32 26 32 32 23 23 19 16
10 10 13 23 16 6 6 6 6 6 6 6 13 16 13 19 19 29 32 26 29 29 29 39 42 48 45 45 45 42 42 45 42 32 35 26 23 26 29 26 19 23 19 13
0 3 16 10 19 10 13 13 6 3 3 13 10 16 19 16 23 29 29 32 29 29 29 35 39 35 42 45 45 35 39 39 42 35 32 19 23 26 23 16 13 6 3 6